[Iaude] MPEC L24: 2024 LC [a=2.08,e=0.51,i=9.5,H=25.6]

mpec at cfa.harvard.edu mpec at cfa.harvard.edu
Sun Jun 2 12:17:46 EDT 2024


M.P.E.C. 2024-L24                                  Issued 2024 June 2, 16:16 UT

     The Minor Planet Electronic Circulars contain information on unusual
         minor planets, routine data on comets and natural satellites,
         and occasional editorial announcements.  They are published
    on behalf of Division F of the International Astronomical Union by the
          Minor Planet Center, Smithsonian Astrophysical Observatory,
                          Cambridge, MA 02138, U.S.A.
			  
             Prepared using the Tamkin Foundation Computer Network

                              MPC at CFA.HARVARD.EDU
            URL https://www.minorplanetcenter.net/    ISSN 1523-6714

                                    2024 LC                                     


Observations:
     K24L00C* C2024 06 01.27625813 49 08.561-16 22 31.35         20.74wXEL024F51
     K24L00C  C2024 06 01.28792713 49 15.121-16 20 29.98         20.88wXEL024F51
     K24L00C  C2024 06 01.29955613 49 21.714-16 18 27.58         19.98GVEL024F51
     K24L00C  C2024 06 01.31120813 49 28.297-16 16 24.97         20.75wXEL024F51
     K24L00C 3C2024 06 02.25866214 00 20.804-13 15 20.95         20.37GVEL024T14
     K24L00C 3C2024 06 02.25988914 00 21.611-13 15 05.83         20.38GVEL024T14
     K24L00C 3C2024 06 02.26086614 00 22.252-13 14 53.84         20.32GVEL024T14
     K24L00C 3C2024 06 02.26184514 00 22.897-13 14 41.72         20.38GVEL024T14
     K24L00C 3C2024 06 02.26282414 00 23.541-13 14 29.64         20.32GVEL024T14
     K24L00C KB2024 06 02.59752 14 04 27.79 -12 04 05.1          19.7 GVEL024P13
     K24L00C KB2024 06 02.60652 14 04 34.09 -12 02 05.8                VEL024P13

Observer details:
F51 Pan-STARRS 1, Haleakala.  Observers J. Herman, T. Lowe, P. Minguez, A.
    Schultz, I. Smith.  Measurers K. Chambers, T. de Boer, J. Fairlamb, H.
    Gao, M. Huber, C.-C. Lin, E. Magnier, Y. Ramanjooloo, R. Wainscoat, R.
    Weryk.  1.8-m Ritchey-Chretien + CCD.
P13 Baihuashan Observatory, Beijing.  Observers Z. Wang, B. Liu.  Measurer Z.
    Wang.  0.28-m f/2.2 reflector + CMO.
T14 Canada-France-Hawaii Telescope, Maunakea.  Observers R. Wainscoat, L.
    Wells, T. Burdullis.  Measurers R. Weryk, R. Wainscoat.  3.6-m f/4.1
    reflector + CCD.

Orbital elements:
2024 LC                                                  Earth MOID = 0.0288 AU
Epoch 2024 Mar. 31.0 TT = JDT 2460400.5                 MPC                     
M 333.58386              (2000.0)            P               Q                  
n   0.32806779     Peri.   19.52990     -0.00296066     +0.98779373             
a   2.0820620      Node   250.54851     -0.93804166     -0.05670907             
e   0.5060586      Incl.    9.50691     -0.34650985     +0.14507799             
P   3.00           H   25.65          G   0.15           U   9                  
Residuals in seconds of arc
240601 F51  0.2+  0.2+    240602 T14  0.0   0.0     240602 T14  0.0   0.0
240601 F51  0.3-  0.3-    240602 T14  0.0   0.0     240602 P13  0.6+  0.8-
240601 F51  0.1+  0.1+    240602 T14  0.0   0.0     240602 P13  0.3+  0.3-
240601 F51  0.0   0.0     240602 T14  0.0   0.0

Ephemeris:
2024 LC                  a,e,i = 2.08, 0.51, 10                  q = 1.0284
Date    TT    R. A. (2000) Decl.     Delta      r    Elong.  Phase     V
2024 05 03    12 32 23.9 -37 19 05   0.1940  1.1710   144.3    30.2    23.7
...
2024 05 18    12 40 12.6 -33 39 21   0.1147  1.0991   137.8    38.2    22.7
...
2024 05 26    13 03 59.8 -27 52 49   0.07569 1.0696   137.0    40.2    21.8
...
2024 06 01    13 46 12.6 -17 08 04   0.04940 1.0522   139.8    38.5    20.8
2024 06 02    13 57 10.0 -14 06 07   0.04557 1.0498   140.5    37.9    20.6
2024 06 03    14 09 46.6 -10 30 19   0.04203 1.0474   141.2    37.4    20.4
...
2024 06 09    16 14 12.8 +23 58 46   0.03148 1.0362   131.2    47.5    20.0
...
2024 06 17    19 52 43.5 +48 15 40   0.05284 1.0288   102.6    74.5    21.9
...
2024 07 02    21 59 26.3 +46 37 24   0.1189  1.0392    97.6    75.9    23.8

A. U. Tomatic                (C) Copyright 2024 MPC           M.P.E.C. 2024-L24





More information about the Iaude mailing list